Page Field Fort Myers US
ICAO: KFMY
IATA: FMY
Category: Medium
Scheduled Services: No

Elevation: 17 ft
TransAlt. 18000 ft.

Airport Communications:
FORT MYERS APP/DEP:126.8
ATIS:123.725
CLNC DEL:121.7
CTAF:119
GND:121.7
MIAMI RDO:122.2
TWR:119
UNICOM:130.55

KFMY Zoom In..

If you have problems with the map follow the link
https://www.worldairports.se/pages/airport.php?
ICAO=KFMY

Runways:

(A) RW 05 length 6406 ft width 150 ft
ILS 110.70 / hdg 51

(B) RW 13 length 4912 ft width 150 ft
---- / hdg 133

(C) RW 23 length 6406 ft width 150 ft
---- / hdg 231

(D) RW 31 length 4912 ft width 150 ft
---- / hdg 313

Location; KFMY
Day. 17 / Time. 02.53 Zulu
* Altimeter: 30.11
* Temperature: 16° c. 60.8°f.
* Wind from: 010° Speed 06 kn.
Dewpoint: 09° c.
Visibility: 10 Statute Miles.
Clouds: Clear (automated report).

KFMY 170253Z AUTO 01006KT 10SM CLR 16/09 A3011 RMK AO2 SLP198 T01560089 51011


Wind From 010°
Speed 06 kn.

 
 
jpsmedia.com for Web Design worldairports.se 2018   terms of use